{"data":{"norad_id":67415,"epoch":"2026-05-24T09:56:24.498816Z","epoch_age_seconds":128771,"freshness":"FRESH","line1":"1 67415U 26005M   26144.41417244  .00019009  00000+0  69844-3 0  9992","line2":"2 67415  43.0005 170.6679 0001604 265.7689  94.2980 15.27582777 20271","mean_motion":15.27582777,"eccentricity":0.0001604,"inclination_deg":43.0005,"raan_deg":170.6679,"arg_perigee_deg":265.7689,"mean_anomaly_deg":94.298,"bstar":0.00069844,"rev_number":2027,"period_min":94.266577345681,"perigee_km":481.9402477992,"apogee_km":484.14131363126,"semimajor_km":6861.1777807152,"source":"CELESTRAK","updated_at":"2026-05-25T13:38:21.554729Z"}}